Content
SEND FEEDBACK

Daily
Averages
Monthly
Summary
United States of America

PITTSFIELD, PENNSYLVANIA


Home > North America > United States > Pennsylvania
Elevation: 1300 feet     Latitude: 41 49N     Longitude: 079 27W

WEATHER
 
SELECT A DAY
Number of Records: 355,362;   Date Range: 1/1/95 - 12/17/14
 
SHARE

PRINT THIS DATA

[ ← Previous Day ]
WEATHER ALMANAC - JANUARY 23, 2013
[ Next Day → ]
[ °C ]   °F
Weather ElementAverageHighLow
Temperature5.3 °F8.6 °F (12:15 pm)1.4 °F (8:15 am)
Dewpoint0.3 °F5 °F (5:55 pm)-2.2 °F (8:15 am)
Humidity80 %92 % (3:15 am)62 % (12:15 pm)
Barometer30.05 in30.11 in (9:35 am)29.97 in (11:35 pm)
Wind Speed8.1 mph16.1 mph (11:35 am)
Wind Gust19.6 mph (11:15 am)
Weather ElementAverage
Visibility4.2 mi
Wind DirectionWSW (231 °)

Weather ElementTotal
Precipitation0.02 in
Heating Degree Days60 (Base 65)
Averaged from 70 records on January 23, 2013
WEATHER CONDITIONS BREAKOUT
WIND DIRECTION BREAKOUT
WEATHER BY HOUR - JANUARY 23, 2013
[ °C ]   °F
Local TimeTemperatureDewpointHumidityBarometerVisibilityWind DirectionWind SpeedGust SpeedPrecipitationEventsConditions
12:35 AM3.2 °F-0.4 °F85 %30.06 in0.8 miWSW (240°)6.9 mph0.01 inOvercast
12:55 AM3.2 °F-0.4 °F85 %30.06 in0.5 miWSW (250°)8.1 mph0.01 inOvercast
1:15 AM3.2 °F-0.4 °F85 %30.06 in0.8 miWSW (250°)6.9 mphOvercast
1:35 AM3.2 °F-0.4 °F85 %30.06 in0.8 miWSW (240°)6.9 mphOvercast
1:55 AM3.2 °F-0.4 °F85 %30.06 in1.0 miWSW (250°)8.1 mphOvercast
2:15 AM3.2 °F-0.4 °F85 %30.06 in1.0 miWSW (240°)8.1 mphOvercast
2:35 AM3.2 °F-0.4 °F85 %30.07 in1.0 miWSW (240°)6.9 mphOvercast
2:55 AM3.2 °F-0.4 °F85 %30.08 in1.0 miWSW (240°)6.9 mphOvercast
3:15 AM3.2 °F1.4 °F92 %30.07 in1.0 miSW (230°)6.9 mphOvercast
3:35 AM3.2 °F-0.4 °F85 %30.07 in1.0 miSW (230°)4.6 mphOvercast
3:55 AM3.2 °F-0.4 °F85 %30.07 in0.8 miSW (230°)5.8 mphOvercast
4:15 AM3.2 °F1.4 °F92 %30.07 in1.0 miWSW (240°)5.8 mphOvercast
4:35 AM3.2 °F-0.4 °F85 %30.07 in1.0 miWSW (240°)4.6 mphOvercast
4:55 AM3.2 °F-0.4 °F85 %30.07 in1.8 miWest (280°)8.1 mphOvercast
5:15 AM5.0 °F-0.4 °F78 %30.07 in1.0 miWest (280°)8.1 mphOvercast
5:35 AM5.0 °F-0.4 °F78 %30.07 in2.5 miWNW (290°)8.1 mphOvercast
5:55 AM5.0 °F-0.4 °F78 %30.08 in3.0 miWNW (290°)6.9 mphOvercast
6:15 AM5.0 °F-0.4 °F78 %30.08 in3.0 miWest (260°)6.9 mphOvercast
6:35 AM3.2 °F1.4 °F92 %30.08 in1.8 miSW (220°)5.8 mphOvercast
6:55 AM3.2 °F-0.4 °F85 %30.08 in1.0 miSW (230°)5.8 mphOvercast
7:15 AM3.2 °F-0.4 °F85 %30.08 in1.2 miSW (220°)6.9 mphOvercast
7:35 AM3.2 °F-0.4 °F85 %30.09 in1.2 miSW (220°)6.9 mphOvercast
7:55 AM3.2 °F-0.4 °F85 %30.09 in1.2 miSW (220°)6.9 mphOvercast
8:15 AM1.4 °F-2.2 °F85 %30.08 in2.0 miSW (220°)6.9 mphOvercast
8:35 AM3.2 °F-0.4 °F85 %30.09 in4.0 miSW (220°)6.9 mphMostly Cloudy
8:55 AM3.2 °F-2.2 °F78 %30.10 in1.5 miSW (220°)6.9 mphOvercast
9:15 AM3.2 °F-0.4 °F85 %30.10 in2.0 miSW (230°)9.2 mphOvercast
9:35 AM3.2 °F-2.2 °F78 %30.11 in2.0 miSW (220°)9.2 mphOvercast
9:55 AM3.2 °F-0.4 °F85 %30.11 in5.0 miSW (220°)8.1 mphOvercast
10:15 AM5.0 °F-0.4 °F78 %30.11 in7.0 miSW (230°)6.9 mphOvercast
10:35 AM6.8 °F-0.4 °F72 %30.11 in7.0 miSW (230°)12.7 mph16.1 mphOvercast
10:55 AM6.8 °F-0.4 °F72 %30.10 in4.0 miWSW (240°)12.7 mphMostly Cloudy
11:15 AM6.8 °F-0.4 °F72 %30.10 in10.0 miWSW (240°)13.8 mph19.6 mphMostly Cloudy
11:35 AM6.8 °F-2.2 °F67 %30.10 in10.0 miWSW (240°)16.1 mphMostly Cloudy
11:55 AM6.8 °F-2.2 °F67 %30.09 in10.0 miWSW (240°)11.5 mph19.6 mphMostly Cloudy
12:15 PM8.6 °F-2.2 °F62 %30.08 in10.0 miWSW (250°)15.0 mphOvercast
12:35 PM6.8 °F-2.2 °F67 %30.08 in1.2 miWest (280°)9.2 mphOvercast
12:55 PM6.8 °F-0.4 °F72 %30.07 in2.5 miWest (260°)6.9 mphOvercast
1:15 PM6.8 °F-0.4 °F72 %30.06 in5.0 miWest (270°)6.9 mphMostly Cloudy
1:35 PM6.8 °F3.2 °F85 %30.06 in0.5 miWSW (240°)6.9 mphOvercast
1:55 PM6.8 °F1.4 °F79 %30.05 in1.0 miWSW (250°)5.8 mphOvercast
2:15 PM8.6 °F-0.4 °F67 %30.05 in7.0 miSW (230°)11.5 mph17.3 mphOvercast
2:35 PM8.6 °F-2.2 °F62 %30.04 in7.0 miWSW (240°)13.8 mphOvercast
2:55 PM8.6 °F-0.4 °F67 %30.04 in8.0 miWSW (240°)15.0 mph18.4 mphOvercast
3:15 PM8.6 °F-0.4 °F67 %30.04 in5.0 miWSW (240°)11.5 mphOvercast
3:35 PM8.6 °F1.4 °F73 %30.04 in3.0 miSW (220°)6.9 mphMostly Cloudy
4:15 PM8.6 °F3.2 °F79 %30.03 in3.0 miWSW (240°)6.9 mphMostly Cloudy
4:35 PM8.6 °F1.4 °F73 %30.03 in3.0 miWSW (250°)11.5 mphOvercast
4:55 PM8.6 °F3.2 °F79 %30.04 in1.0 miWSW (240°)10.4 mphOvercast
5:15 PM8.6 °F3.2 °F79 %30.03 in0.5 miSW (230°)8.1 mphOvercast
5:35 PM8.6 °F3.2 °F79 %30.02 in0.8 miSW (220°)6.9 mphOvercast
5:55 PM8.6 °F5.0 °F85 %30.02 in1.5 miSSW (200°)8.1 mphOvercast
6:15 PM8.6 °F3.2 °F79 %30.02 in1.2 miSW (220°)9.2 mphOvercast
6:35 PM6.8 °F3.2 °F85 %30.01 in3.0 miSSW (210°)9.2 mphOvercast
6:55 PM6.8 °F1.4 °F79 %30.01 in8.0 miSW (220°)8.1 mphOvercast
7:15 PM6.8 °F1.4 °F79 %30.01 in9.0 miSW (220°)9.2 mphOvercast
7:35 PM6.8 °F-0.4 °F72 %30.01 in10.0 miSSW (210°)9.2 mphOvercast
7:55 PM6.8 °F1.4 °F79 %30.01 in10.0 miSW (220°)8.1 mphOvercast
8:15 PM6.8 °F-0.4 °F72 %30.00 in10.0 miSSW (210°)8.1 mphMostly Cloudy
8:35 PM5.0 °F1.4 °F85 %30.00 in9.0 miSSW (200°)8.1 mphOvercast
8:55 PM5.0 °F1.4 °F85 %30.00 in10.0 miSouth (190°)6.9 mphOvercast
9:15 PM6.8 °F1.4 °F79 %30.00 in10.0 miSSW (200°)6.9 mphOvercast
9:35 PM6.8 °F1.4 °F79 %29.99 in2.5 miSSW (200°)5.8 mphOvercast
9:55 PM5.0 °F1.4 °F85 %29.99 in10.0 miSSW (200°)5.8 mphOvercast
10:15 PM5.0 °F1.4 °F85 %29.99 in10.0 miSSW (200°)5.8 mphOvercast
10:35 PM3.2 °F-0.4 °F85 %29.99 in7.0 miSSW (200°)5.8 mphOvercast
10:55 PM3.2 °F1.4 °F92 %29.98 in7.0 miSouth (190°)6.9 mphOvercast
11:15 PM3.2 °F-0.4 °F85 %29.98 in10.0 miSSW (200°)5.8 mphMostly Cloudy
11:35 PM3.2 °F-0.4 °F85 %29.97 in10.0 miSSW (200°)5.8 mphMostly Cloudy
11:55 PM3.2 °F1.4 °F92 %29.97 in3.0 miSSW (200°)4.6 mphMostly Cloudy
Hourly data recorded from KJHW, located miles away from Pittsfield, Pennsylvania







STORIES FROM OUR PARTNERS